period_start,C,m1,H,J0,J1,J2,J3,J4,J5,JA,JB,JC,JD,JJ,JK,JN,#
2017-10-31 00:04:57,0.03,1.49,0.00,15.88,19.22,22.45,14.34,47.33,1019.05,2059.03,2945.07,2756.90,3099.42,600.15,612.22,54.87,0000 0000 0000 0000 000000
2017-10-31 00:09:59,0.04,1.50,0.00,15.89,19.22,22.47,14.34,47.36,1019.06,2059.04,2944.25,2756.19,3099.04,599.90,612.02,54.92,0000 0000 0000 0000 000000
2017-10-31 00:15:00,0.00,1.50,0.00,15.89,19.21,22.41,14.35,47.36,1019.05,2059.10,2943.98,2756.01,3098.99,599.85,612.05,54.97,0000 0000 0000 0000 000000
2017-10-31 00:20:01,0.04,1.50,0.00,15.88,19.21,22.46,14.29,47.36,1019.06,2059.32,2943.58,2755.99,3098.74,599.74,611.98,55.02,0000 0000 0000 0000 000000
2017-10-31 00:25:02,0.02,1.50,0.00,15.89,19.21,22.44,14.37,47.43,1019.06,2059.41,2943.00,2755.79,3098.05,600.14,612.34,55.07,0000 0000 0000 0000 000000
2017-10-31 00:30:04,0.02,1.50,0.00,15.89,19.21,22.40,14.35,47.34,1019.06,2059.38,2942.71,2755.20,3097.99,600.35,612.50,55.12,0000 0000 0000 0000 000000
2017-10-31 00:35:05,0.02,1.50,0.00,15.89,19.21,22.42,14.34,47.32,1019.06,2059.38,2942.03,2755.01,3097.67,599.97,612.01,55.17,0000 0000 0000 0000 000000
2017-10-31 00:40:06,0.00,1.50,0.00,15.90,19.22,22.41,14.33,47.35,1019.06,2059.41,2941.93,2754.97,3097.04,600.17,612.32,55.22,0000 0000 0000 0000 000000
2017-10-31 00:45:07,0.02,1.50,0.00,15.91,19.22,22.44,14.34,47.38,1019.06,2059.28,2941.15,2754.58,3096.98,599.92,612.15,55.27,0000 0000 0000 0000 000000
2017-10-31 00:50:09,0.01,1.51,0.00,15.94,19.23,22.42,14.37,47.37,1019.06,2059.09,2941.01,2754.02,3096.30,600.19,612.16,55.32,0000 0000 0000 0000 000000
2017-10-31 00:55:10,0.00,1.51,0.00,15.94,19.24,22.44,14.36,47.30,1019.07,2059.03,2940.84,2753.99,3095.99,600.09,612.06,55.37,0000 0000 0000 0000 000000
2017-10-31 01:00:11,0.06,1.51,0.00,15.97,19.27,22.47,14.29,47.27,1019.07,2059.02,2939.77,2753.58,3095.42,599.47,611.47,55.42,0000 0000 0000 0000 000000
2017-10-31 01:05:13,0.11,1.51,0.00,15.96,19.28,22.48,14.35,47.36,1019.10,2059.01,2937.17,2752.23,3093.91,600.06,612.12,55.48,0000 0000 0000 0000 000000
2017-10-31 01:10:14,0.08,1.52,0.00,15.98,19.29,22.47,14.31,47.42,1019.24,2059.00,2935.28,2751.36,3092.86,600.06,612.10,55.53,0000 0000 0000 0000 000000
2017-10-31 01:15:15,0.12,1.52,0.00,15.97,19.29,22.50,14.35,47.34,1019.32,2059.00,2932.53,2750.13,3091.37,600.00,612.20,55.58,0000 0000 0000 0000 000000
2017-10-31 01:20:16,0.08,1.53,0.00,15.99,19.29,22.46,14.31,47.36,1019.35,2059.00,2930.59,2749.01,3090.03,600.02,612.12,55.63,0000 0000 0000 0000 000000
2017-10-31 01:25:18,0.07,1.53,0.00,15.98,19.29,22.48,14.33,47.28,1019.28,2059.00,2929.22,2748.15,3089.11,599.95,612.06,55.68,0000 0000 0000 0000 000000
2017-10-31 01:30:19,0.09,1.54,0.00,15.98,19.30,22.46,14.26,47.23,1019.22,2059.00,2927.38,2747.36,3088.14,599.86,611.75,55.73,0000 0000 0000 0000 000000
2017-10-31 01:35:20,0.08,1.54,0.00,15.99,19.31,22.50,14.36,47.25,1019.25,2059.00,2925.44,2746.20,3086.89,600.23,612.24,55.78,0000 0000 0000 0000 000000
2017-10-31 01:40:21,0.08,1.54,0.00,15.99,19.32,22.52,14.37,47.39,1019.33,2059.00,2923.84,2745.24,3085.83,599.86,611.97,55.83,0000 0000 0000 0000 000000
2017-10-31 01:45:22,0.06,1.55,0.00,16.00,19.32,22.50,14.37,47.28,1019.51,2059.00,2922.58,2744.40,3084.96,599.88,612.19,55.88,0000 0000 0000 0000 000000
2017-10-31 01:50:24,0.02,1.55,0.00,16.02,19.32,22.52,14.26,47.26,1019.53,2059.00,2921.98,2744.00,3084.13,599.76,611.97,55.93,0000 0000 0000 0000 000000
2017-10-31 01:55:25,0.04,1.55,0.00,16.04,19.32,22.53,14.35,47.31,1019.51,2058.98,2921.09,2743.58,3083.71,600.05,612.22,55.98,0000 0000 0000 0000 000000
2017-10-31 02:00:26,0.05,1.55,0.00,16.05,19.32,22.54,14.37,47.22,1019.55,2058.98,2919.77,2742.85,3082.99,600.52,612.69,56.03,0000 0000 0000 0000 000000
2017-10-31 02:05:27,0.05,1.56,0.00,16.05,19.32,22.54,14.34,47.13,1019.55,2058.97,2918.79,2742.04,3082.12,600.18,612.27,56.08,0000 0000 0000 0000 000000
2017-10-31 02:10:29,0.06,1.56,0.00,16.06,19.34,22.53,14.37,47.13,1019.55,2058.98,2917.70,2741.39,3081.22,600.13,612.28,56.13,0000 0000 0000 0000 000000
2017-10-31 02:15:30,0.05,1.56,0.00,16.08,19.34,22.54,14.31,47.08,1019.55,2058.98,2916.51,2740.81,3080.62,600.26,612.27,56.18,0000 0000 0000 0000 000000
2017-10-31 02:20:31,0.06,1.57,0.00,16.09,19.34,22.56,14.32,47.13,1019.55,2058.97,2915.19,2739.99,3079.64,599.81,611.84,56.23,0000 0000 0000 0000 000000
2017-10-31 02:25:33,0.06,1.57,0.00,16.11,19.35,22.59,14.28,47.13,1019.57,2058.98,2913.92,2739.13,3078.74,600.04,611.78,56.28,0000 0000 0000 0000 000000
2017-10-31 02:30:34,0.05,1.57,0.00,16.13,19.37,22.56,14.31,47.21,1019.59,2058.97,2912.86,2738.42,3077.92,599.70,611.63,56.33,0000 0000 0000 0000 000000
2017-10-31 02:35:35,0.05,1.58,0.00,16.13,19.37,22.56,14.28,47.13,1019.59,2058.97,2911.71,2737.83,3077.07,599.47,611.52,56.38,0000 0000 0000 0000 000000
2017-10-31 02:40:37,0.06,1.58,0.00,16.15,19.38,22.57,14.27,47.08,1019.68,2058.93,2910.27,2737.01,3076.19,600.16,612.12,56.44,0000 0000 0000 0000 000000
2017-10-31 02:45:38,0.06,1.58,0.00,16.17,19.39,22.56,14.28,47.08,1019.70,2058.97,2909.19,2736.19,3075.40,599.92,611.80,56.49,0000 0000 0000 0000 000000
2017-10-31 02:50:39,0.03,1.59,0.00,16.18,19.39,22.60,14.33,47.18,1019.87,2058.77,2907.96,2735.43,3074.33,599.74,611.80,56.54,0000 0000 0000 0000 000000
2017-10-31 02:55:41,0.11,1.59,0.00,16.22,19.42,22.62,14.32,47.20,1019.92,2058.81,2906.18,2734.36,3073.26,599.84,611.87,56.59,0000 0000 0000 0000 000000
2017-10-31 03:00:42,0.05,1.59,0.00,16.22,19.42,22.62,14.33,47.13,1019.98,2058.67,2904.71,2733.29,3072.12,600.07,612.06,56.64,0000 0000 0000 0000 000000
2017-10-31 03:05:43,0.06,1.59,0.00,16.24,19.43,22.63,14.31,47.04,1020.02,2058.40,2903.41,2732.51,3071.11,599.84,611.86,56.69,0000 0000 0000 0000 000000
2017-10-31 03:10:45,0.02,1.60,0.00,16.26,19.44,22.62,14.26,47.01,1020.03,2058.25,2902.23,2731.85,3070.38,599.92,611.96,56.74,0000 0000 0000 0000 000000
2017-10-31 03:15:46,0.04,1.60,0.00,16.28,19.46,22.66,14.35,47.09,1020.03,2058.08,2901.16,2731.06,3069.51,599.98,611.90,56.79,0000 0000 0000 0000 000000
2017-10-31 03:20:47,0.05,1.60,0.00,16.31,19.47,22.68,14.29,47.09,1020.03,2058.01,2900.14,2730.28,3068.70,600.00,611.78,56.84,0000 0000 0000 0000 000000
2017-10-31 03:25:48,0.02,1.60,0.00,16.33,19.48,22.71,14.25,47.05,1020.03,2058.00,2899.40,2729.95,3068.00,599.84,611.65,56.89,0000 0000 0000 0000 000000
2017-10-31 03:30:50,0.06,1.61,0.00,16.36,19.49,22.72,14.29,47.10,1020.03,2058.01,2898.45,2729.12,3067.20,600.10,611.76,56.94,0000 0000 0000 0000 000000
2017-10-31 03:35:51,0.06,1.61,0.00,16.36,19.50,22.72,14.34,47.09,1020.03,2058.01,2897.09,2728.51,3066.53,600.17,611.93,56.99,0000 0000 0000 0000 000000
2017-10-31 03:40:52,0.04,1.61,0.00,16.36,19.52,22.74,14.32,47.13,1020.03,2058.00,2896.05,2727.89,3065.74,600.06,611.91,57.04,0000 0000 0000 0000 000000
2017-10-31 03:45:54,0.05,1.62,0.00,16.41,19.53,22.76,14.29,47.10,1020.03,2058.00,2895.13,2727.07,3064.95,599.83,611.43,57.09,0000 0000 0000 0000 000000
2017-10-31 03:50:55,0.06,1.62,0.00,16.42,19.54,22.75,14.33,47.05,1020.03,2058.00,2894.00,2726.42,3064.07,600.11,611.69,57.14,0000 0000 0000 0000 000000
2017-10-31 03:55:56,0.07,1.62,0.00,16.43,19.56,22.79,14.35,47.12,1020.03,2058.00,2892.74,2725.59,3063.16,599.96,611.57,57.19,0000 0000 0000 0000 000000
2017-10-31 04:00:57,0.05,1.63,0.00,16.46,19.58,22.81,14.26,46.98,1020.03,2057.98,2891.49,2724.82,3062.24,599.97,611.49,57.24,0000 0000 0000 0000 000000
2017-10-31 04:05:59,0.06,1.63,0.00,16.50,19.59,22.83,14.31,47.04,1020.04,2057.99,2890.19,2724.04,3061.44,600.28,611.59,57.29,0000 0000 0000 0000 000000
2017-10-31 04:11:00,0.05,1.63,0.00,16.48,19.62,22.82,14.32,47.03,1020.04,2057.98,2889.10,2723.40,3060.78,600.22,611.58,57.34,0000 0000 0000 0000 000000
2017-10-31 04:16:01,0.03,1.63,0.00,16.48,19.63,22.88,14.37,47.13,1020.04,2057.98,2888.14,2722.93,3060.02,600.25,611.64,57.40,0000 0000 0000 0000 000000
2017-10-31 04:21:03,0.07,1.64,0.00,16.49,19.65,22.88,14.27,47.08,1020.04,2057.97,2887.06,2722.07,3059.20,599.76,611.30,57.45,0000 0000 0000 0000 000000
2017-10-31 04:26:04,0.07,1.64,0.00,16.50,19.67,22.88,14.33,47.09,1020.06,2057.90,2885.63,2721.18,3058.11,600.08,611.53,57.50,0000 0000 0000 0000 000000
2017-10-31 04:31:05,0.07,1.64,0.00,16.48,19.69,22.86,14.28,47.06,1020.06,2057.63,2884.07,2719.97,3056.60,599.80,611.42,57.55,0000 0000 0000 0000 000000
2017-10-31 04:36:07,0.10,1.65,0.00,16.47,19.70,22.88,14.31,47.02,1020.06,2057.30,2881.58,2718.44,3055.16,600.29,611.78,57.60,0000 0000 0000 0000 000000
2017-10-31 04:41:08,0.08,1.65,0.00,16.49,19.72,22.90,14.28,46.98,1020.18,2057.28,2879.68,2717.31,3053.77,599.95,611.59,57.65,0000 0000 0000 0000 000000
2017-10-31 04:46:09,0.10,1.66,0.00,16.50,19.74,22.90,14.34,47.07,1020.20,2057.05,2878.00,2715.80,3051.98,600.28,611.89,57.70,0000 0000 0000 0000 000000
2017-10-31 04:51:10,0.12,1.66,0.00,16.50,19.75,22.92,14.29,47.08,1020.37,2057.03,2875.49,2714.27,3050.19,599.75,611.42,57.75,0000 0000 0000 0000 000000
2017-10-31 04:56:12,0.14,1.67,0.00,16.51,19.77,22.94,14.31,47.08,1020.48,2057.01,2872.75,2712.59,3048.35,599.90,611.59,57.80,0000 0000 0000 0000 000000
2017-10-31 05:01:13,0.11,1.68,0.00,16.52,19.78,22.97,14.25,47.17,1020.41,2057.00,2870.52,2710.94,3046.45,599.64,611.27,57.85,0000 0000 0000 0000 000000
2017-10-31 05:06:14,0.11,1.68,0.00,16.50,19.79,22.96,14.34,47.20,1020.48,2057.00,2868.61,2709.64,3044.88,599.72,611.49,57.90,0000 0000 0000 0000 000000
2017-10-31 05:11:15,0.10,1.69,0.00,16.50,19.80,22.97,14.32,47.28,1020.52,2056.99,2866.49,2708.45,3043.54,599.82,611.54,57.95,0000 0000 0000 0000 000000
2017-10-31 05:16:16,0.11,1.70,0.00,16.51,19.81,22.96,14.31,47.00,1020.52,2056.99,2864.31,2706.93,3041.79,599.98,611.71,58.00,0000 0000 0000 0000 000000
2017-10-31 05:21:17,0.11,1.70,0.00,16.52,19.82,22.99,14.38,47.10,1020.52,2056.98,2862.30,2705.68,3040.44,600.64,612.35,58.05,0000 0000 0000 0000 000000
2017-10-31 05:26:19,0.10,1.71,0.00,16.51,19.82,22.99,14.24,47.13,1020.52,2056.98,2860.11,2704.47,3039.21,599.80,611.70,58.10,0000 0000 0000 0000 000000
2017-10-31 05:31:20,0.12,1.71,0.00,16.51,19.82,22.97,14.36,47.17,1020.52,2056.99,2857.76,2703.02,3037.55,599.79,611.55,58.15,0000 0000 0000 0000 000000
2017-10-31 05:36:21,0.12,1.72,0.00,16.49,19.84,22.96,14.30,47.11,1020.52,2056.99,2855.40,2701.58,3035.85,599.74,611.50,58.20,0000 0000 0000 0000 000000
2017-10-31 05:41:22,0.08,1.72,0.00,16.50,19.84,22.97,14.28,47.19,1020.52,2056.98,2853.67,2700.29,3034.22,600.10,611.86,58.25,0000 0000 0000 0000 000000
2017-10-31 05:46:24,0.11,1.73,0.00,16.49,19.84,22.96,14.27,47.16,1020.53,2056.97,2851.44,2698.90,3032.65,599.99,611.65,58.31,0000 0000 0000 0000 000000
2017-10-31 05:51:26,0.08,1.73,0.00,16.49,19.84,22.97,14.36,47.18,1020.52,2056.97,2849.82,2697.87,3031.47,600.08,611.84,58.36,0000 0000 0000 0000 000000
2017-10-31 05:56:27,0.06,1.74,0.00,16.48,19.84,23.00,14.34,47.23,1020.53,2056.88,2848.44,2697.00,3030.30,600.16,611.97,58.41,0000 0000 0000 0000 000000
2017-10-31 06:01:28,0.09,1.74,0.00,16.50,19.84,23.01,14.38,47.13,1020.52,2056.84,2846.78,2696.07,3029.32,600.44,612.08,58.46,0000 0000 0000 0000 000000
2017-10-31 06:06:29,0.08,1.75,0.00,16.38,19.84,22.99,14.33,47.20,1020.52,2056.90,2845.14,2695.12,3028.35,600.00,611.92,58.51,0000 0000 0000 0000 000000
2017-10-31 06:11:30,0.09,1.75,0.00,16.38,19.84,22.99,14.34,47.10,1020.55,2056.96,2843.54,2694.19,3027.46,600.36,612.26,58.56,0000 0000 0000 0000 000000
2017-10-31 06:16:32,0.06,1.75,0.00,16.33,19.84,22.98,14.32,47.21,1020.64,2056.89,2842.08,2693.20,3026.18,600.08,612.26,58.61,0000 0000 0000 0000 000000
2017-10-31 06:21:33,0.09,1.76,0.00,16.23,19.84,22.99,14.33,47.15,1020.85,2056.87,2840.59,2692.34,3025.20,600.08,612.62,58.66,0000 0000 0000 0000 000000
2017-10-31 06:26:34,0.07,1.76,0.00,16.27,19.84,23.04,14.35,47.13,1020.98,2056.94,2839.26,2691.55,3024.30,600.04,612.57,58.71,0000 0000 0000 0000 000000
2017-10-31 06:31:36,0.07,1.77,0.00,16.27,19.84,23.02,14.33,47.11,1020.99,2056.95,2837.75,2690.66,3023.30,599.67,612.25,58.76,0000 0000 0000 0000 000000
2017-10-31 06:36:37,0.09,1.77,0.00,16.27,19.84,23.06,14.36,47.09,1021.01,2056.93,2836.02,2689.61,3022.02,600.07,612.62,58.81,0000 0000 0000 0000 000000
2017-10-31 06:41:38,0.09,1.77,0.00,16.28,19.84,23.04,14.32,47.10,1021.01,2056.91,2834.33,2688.51,3020.81,599.85,612.50,58.86,0000 0000 0000 0000 000000
2017-10-31 06:46:40,0.07,1.78,0.00,16.08,19.83,23.07,14.42,47.23,1021.07,2056.83,2832.92,2687.57,3019.56,600.17,613.19,58.91,0000 0000 0000 0000 000000
2017-10-31 06:51:41,0.09,1.78,0.00,16.00,19.82,23.19,14.45,47.23,1021.11,2056.78,2831.26,2686.66,3018.48,599.86,613.01,58.96,0000 0000 0000 0000 000000
2017-10-31 06:56:43,0.09,1.79,0.00,15.94,19.80,23.30,14.44,47.21,1021.08,2056.84,2829.40,2685.60,3017.32,600.17,613.50,59.01,0000 0000 0000 0000 000000
2017-10-31 07:01:44,0.09,1.79,0.00,15.88,19.78,23.30,14.38,47.25,1021.07,2056.95,2827.61,2684.63,3016.22,599.86,613.44,59.06,0000 0000 0000 0000 000000
2017-10-31 07:06:45,0.09,1.80,0.00,15.84,19.75,23.30,14.47,47.33,1021.12,2056.98,2825.73,2683.60,3015.03,600.00,613.51,59.11,0000 0000 0000 0000 000000
2017-10-31 07:11:47,0.10,1.80,0.00,15.81,19.72,23.25,14.40,47.35,1021.34,2056.99,2823.78,2682.46,3013.85,599.87,613.57,59.16,0000 0000 0000 0000 000000
2017-10-31 07:16:48,0.09,1.81,0.00,15.79,19.69,23.30,14.34,47.27,1021.42,2056.99,2821.94,2681.50,3012.70,599.81,613.56,59.22,0000 0000 0000 0000 000000
2017-10-31 07:21:49,0.15,1.81,0.00,15.78,19.66,23.16,14.45,47.29,1021.42,2057.00,2819.29,2679.98,3011.05,600.15,613.93,59.27,0000 0000 0000 0000 000000
2017-10-31 07:26:50,0.17,1.82,0.00,15.78,19.64,23.04,14.40,47.29,1021.46,2057.02,2816.03,2677.93,3008.72,600.10,613.93,59.32,0000 0000 0000 0000 000000
2017-10-31 07:31:52,0.14,1.83,0.00,15.79,19.62,22.96,14.36,47.31,1021.45,2057.04,2813.37,2676.18,3006.65,600.16,613.98,59.37,0000 0000 0000 0000 000000
2017-10-31 07:36:53,0.15,1.84,0.00,15.79,19.59,22.91,14.39,47.38,1021.44,2057.03,2810.34,2674.50,3004.80,599.99,613.75,59.42,0000 0000 0000 0000 000000
2017-10-31 07:41:54,0.13,1.84,0.00,15.79,19.57,22.84,14.41,47.37,1021.48,2057.08,2807.76,2672.98,3003.06,600.06,613.89,59.47,0000 0000 0000 0000 000000
2017-10-31 07:46:56,0.18,1.85,0.00,15.80,19.54,22.83,14.37,47.33,1021.50,2057.40,2804.79,2671.43,3001.28,599.70,613.54,59.52,0000 0000 0000 0000 000000
2017-10-31 07:51:57,0.17,1.86,0.00,15.79,19.52,22.77,14.36,47.20,1021.50,2057.76,2801.79,2669.72,2999.55,600.00,613.84,59.57,0000 0000 0000 0000 000000
2017-10-31 07:56:58,0.17,1.87,0.00,15.81,19.50,22.73,14.40,47.32,1021.50,2057.93,2798.77,2668.00,2997.62,599.80,613.62,59.62,0000 0000 0000 0000 000000
2017-10-31 08:01:59,0.15,0.63,0.00,15.80,19.50,22.69,12.78,41.03,1021.50,2059.25,3336.88,2985.01,3404.38,532.99,546.36,0.03,0000 0000 0000 0000 000002
2017-10-31 08:07:00,0.14,0.00,0.00,15.79,19.48,22.66,14.41,45.85,1021.50,2059.83,3600.86,3141.31,3606.40,600.11,613.99,0.04,0000 0000 0000 0000 000000
2017-10-31 08:12:02,0.16,0.01,0.00,15.79,19.46,22.60,14.32,45.80,1021.52,2059.95,3595.56,3138.65,3603.36,600.19,614.03,0.09,0000 0000 0000 0000 000000
2017-10-31 08:17:03,0.17,0.02,0.00,15.78,19.44,22.56,14.40,45.78,1021.54,2059.98,3590.61,3135.99,3600.28,600.26,614.16,0.14,0000 0000 0000 0000 000000
2017-10-31 08:22:04,0.19,0.03,0.00,15.78,19.42,22.57,14.33,45.74,1021.61,2059.99,3584.88,3133.07,3596.80,600.06,613.92,0.19,0000 0000 0000 0000 000000
2017-10-31 08:27:06,0.30,0.04,0.00,15.82,19.41,22.55,14.33,45.73,1021.75,2059.99,3574.89,3128.09,3591.17,599.93,613.85,0.24,0000 0000 0000 0000 000000
2017-10-31 08:32:07,0.32,0.06,0.00,15.81,19.39,22.54,14.40,45.76,1021.83,2059.99,3565.82,3123.63,3586.10,600.11,614.10,0.29,0000 0000 0000 0000 000000
2017-10-31 08:37:09,0.28,0.08,0.00,15.79,19.39,22.51,14.37,45.65,1021.86,2060.00,3558.07,3119.74,3581.68,600.01,614.13,0.34,0000 0000 0000 0000 000000
2017-10-31 08:42:10,0.27,0.09,0.00,15.80,19.37,22.52,14.31,45.69,1021.93,2060.01,3550.40,3115.83,3577.22,599.96,614.10,0.39,0000 0000 0000 0000 000000
2017-10-31 08:47:11,0.25,0.10,0.00,15.81,19.37,22.51,14.43,45.72,1021.96,2060.01,3543.49,3112.17,3572.98,600.06,614.13,0.45,0000 0000 0000 0000 000000
2017-10-31 08:52:13,0.26,0.12,0.00,15.81,19.34,22.47,14.48,45.78,1021.98,2060.00,3536.81,3108.42,3568.51,600.39,614.48,0.50,0000 0000 0000 0000 000000
2017-10-31 08:57:14,0.22,0.13,0.00,15.82,19.34,22.49,14.44,45.93,1021.99,2060.00,3530.90,3105.10,3564.54,600.30,614.38,0.55,0000 0000 0000 0000 000000
2017-10-31 09:02:15,0.18,0.14,0.00,15.82,19.33,22.48,14.38,45.86,1021.99,2059.99,3525.92,3102.40,3561.50,600.18,614.32,0.60,0000 0000 0000 0000 000000
2017-10-31 09:07:16,0.17,0.15,0.00,15.82,19.32,22.48,14.42,45.84,1022.00,2059.99,3521.32,3099.78,3558.37,600.46,614.56,0.65,0000 0000 0000 0000 000000
2017-10-31 09:12:17,0.17,0.16,0.00,15.82,19.32,22.46,14.34,45.79,1022.01,2059.99,3517.03,3097.31,3555.58,599.76,613.87,0.70,0000 0000 0000 0000 000000
2017-10-31 09:17:19,0.16,0.17,0.00,15.83,19.30,22.49,14.35,45.90,1022.01,2059.99,3512.58,3094.89,3552.92,600.24,614.27,0.75,0000 0000 0000 0000 000000
2017-10-31 09:22:20,0.19,0.17,0.00,15.83,19.29,22.49,14.31,45.90,1022.10,2060.00,3507.76,3092.29,3549.91,600.00,614.22,0.80,0000 0000 0000 0000 000000
2017-10-31 09:27:21,0.21,0.19,0.00,15.83,19.28,22.47,14.34,45.93,1022.24,2060.01,3502.34,3089.39,3546.59,599.75,613.94,0.85,0000 0000 0000 0000 000000
2017-10-31 09:32:22,0.19,0.20,0.00,15.83,19.27,22.47,14.34,45.83,1022.31,2060.02,3497.38,3086.55,3543.03,599.89,614.15,0.90,0000 0000 0000 0000 000000
2017-10-31 09:37:24,0.20,0.21,0.00,15.82,19.27,22.49,14.36,46.03,1022.37,2060.00,3492.38,3083.81,3539.57,600.12,614.43,0.95,0000 0000 0000 0000 000000
2017-10-31 09:42:25,0.23,0.22,0.00,15.84,19.27,22.46,14.39,45.94,1022.39,2060.00,3486.44,3080.55,3535.91,599.96,614.34,1.00,0000 0000 0000 0000 000000
2017-10-31 09:47:27,0.22,0.23,0.00,15.84,19.25,22.43,14.37,45.82,1022.44,2060.00,3480.47,3077.38,3532.29,599.88,614.25,1.05,0000 0000 0000 0000 000000
2017-10-31 09:52:28,0.19,0.24,0.00,15.83,19.24,22.44,14.33,45.88,1022.47,2060.00,3475.16,3074.48,3529.04,599.59,613.93,1.10,0000 0000 0000 0000 000000
2017-10-31 09:57:29,0.18,0.25,0.00,15.83,19.24,22.44,14.37,46.02,1022.48,2060.00,3470.32,3071.89,3526.07,599.96,614.21,1.15,0000 0000 0000 0000 000000
2017-10-31 10:02:30,0.19,0.26,0.00,15.82,19.24,22.45,14.35,46.01,1022.48,2060.01,3465.41,3069.31,3523.04,600.22,614.62,1.20,0000 0000 0000 0000 000000
2017-10-31 10:07:31,0.18,0.27,0.00,15.82,19.23,22.44,14.36,46.04,1022.48,2060.01,3460.57,3066.67,3520.04,600.13,614.49,1.25,0000 0000 0000 0000 000000
2017-10-31 10:12:33,0.18,0.28,0.00,15.82,19.22,22.49,14.33,46.03,1022.48,2060.02,3456.08,3064.18,3517.35,600.18,614.45,1.30,0000 0000 0000 0000 000000
2017-10-31 10:17:34,0.19,0.29,0.00,15.82,19.22,22.45,14.40,46.10,1022.48,2060.04,3451.35,3061.37,3514.12,600.47,614.87,1.35,0000 0000 0000 0000 000000
2017-10-31 10:22:35,0.17,0.30,0.00,15.82,19.22,22.43,14.38,46.12,1022.49,2060.02,3446.74,3058.74,3510.98,600.33,614.67,1.40,0000 0000 0000 0000 000000
2017-10-31 10:27:36,0.17,0.30,0.00,15.80,19.21,22.43,14.37,46.17,1022.49,2060.02,3442.34,3056.28,3508.10,599.78,614.16,1.45,0000 0000 0000 0000 000000
2017-10-31 10:32:38,0.19,0.31,0.00,15.79,19.20,22.43,14.42,46.11,1022.49,2060.04,3437.71,3053.70,3505.20,600.13,614.51,1.50,0000 0000 0000 0000 000000
2017-10-31 10:37:39,0.19,0.32,0.00,15.79,19.19,22.43,14.40,46.13,1022.50,2060.06,3432.91,3050.99,3502.12,600.25,614.76,1.55,0000 0000 0000 0000 000000
2017-10-31 10:42:40,0.23,0.33,0.00,15.79,19.19,22.42,14.33,46.19,1022.57,2060.07,3427.59,3047.80,3498.42,599.37,613.72,1.60,0000 0000 0000 0000 000000
2017-10-31 10:47:42,0.26,0.35,0.00,15.78,19.19,22.43,14.32,46.02,1022.54,2060.02,3421.44,3044.01,3493.99,600.04,614.51,1.65,0000 0000 0000 0000 000000
2017-10-31 10:52:43,0.34,0.36,0.00,15.78,19.19,22.43,14.31,46.21,1022.60,2060.01,3414.06,3039.32,3488.61,599.74,614.22,1.70,0000 0000 0000 0000 000000
2017-10-31 10:57:45,0.38,0.38,0.00,15.77,19.18,22.40,14.36,46.11,1022.66,2060.03,3405.87,3033.90,3482.42,599.99,614.61,1.75,0000 0000 0000 0000 000000
2017-10-31 11:02:46,0.34,0.40,0.00,15.77,19.17,22.42,14.37,46.22,1022.68,2060.02,3397.99,3028.80,3476.65,600.31,614.91,1.80,0000 0000 0000 0000 000000
2017-10-31 11:07:47,0.34,0.42,0.00,15.78,19.17,22.43,14.36,46.14,1022.71,2060.03,3390.18,3023.78,3470.96,600.27,614.85,1.85,0000 0000 0000 0000 000000
2017-10-31 11:12:49,0.33,0.43,0.00,15.77,19.17,22.44,14.37,46.24,1022.79,2060.03,3382.79,3018.95,3465.46,599.99,614.52,1.90,0000 0000 0000 0000 000000
2017-10-31 11:17:50,0.45,0.45,0.00,15.75,19.15,22.41,14.40,46.24,1022.92,2060.02,3373.54,3012.72,3458.30,600.07,614.84,1.95,0000 0000 0000 0000 000000
2017-10-31 11:22:52,0.53,0.48,0.00,15.75,19.14,22.42,14.48,46.13,1022.96,2060.05,3362.14,3005.00,3449.38,600.54,615.42,2.00,0000 0000 0000 0000 000000
2017-10-31 11:27:53,0.54,0.50,0.00,15.73,19.14,22.40,14.41,46.22,1022.96,2060.04,3350.59,2997.01,3440.16,600.00,614.84,2.05,0000 0000 0000 0000 000000
2017-10-31 11:32:54,0.52,0.53,0.00,15.73,19.14,22.41,14.44,46.27,1022.95,2060.02,3339.27,2989.10,3431.11,600.35,615.28,2.10,0000 0000 0000 0000 000000
2017-10-31 11:37:55,0.44,0.56,0.00,15.73,19.14,22.40,14.41,46.08,1022.96,2060.04,3329.59,2982.33,3423.38,600.10,614.90,2.15,0000 0000 0000 0000 000000
2017-10-31 11:42:56,0.45,0.58,0.00,15.72,19.13,22.38,14.45,46.15,1022.96,2060.04,3320.46,2975.70,3415.86,600.38,615.26,2.20,0000 0000 0000 0000 000000
2017-10-31 11:47:57,0.45,0.60,0.00,15.74,19.12,22.37,14.37,46.11,1022.96,2060.03,3311.17,2969.18,3408.40,600.13,614.96,2.25,0000 0000 0000 0000 000000
2017-10-31 11:52:58,0.42,0.62,0.00,15.73,19.12,22.37,14.38,46.16,1022.96,2060.06,3302.31,2962.86,3400.98,599.96,614.59,2.30,0000 0000 0000 0000 000000
2017-10-31 11:58:00,0.46,0.65,0.00,15.71,19.12,22.37,14.36,46.17,1022.96,2060.01,3292.95,2956.32,3393.32,600.00,614.77,2.35,0000 0000 0000 0000 000000
2017-10-31 12:03:01,0.45,0.67,0.00,15.71,19.12,22.35,14.38,46.19,1022.96,2060.00,3283.38,2949.61,3385.60,599.65,614.54,2.40,0000 0000 0000 0000 000000
2017-10-31 12:08:02,0.43,0.69,0.00,15.71,19.12,22.37,14.35,46.25,1022.96,2060.01,3274.37,2943.53,3378.57,600.21,615.12,2.45,0000 0000 0000 0000 000000
2017-10-31 12:13:04,0.42,0.71,0.00,15.69,19.10,22.37,14.40,46.23,1022.96,2060.01,3265.48,2937.41,3371.49,599.93,614.79,2.50,0000 0000 0000 0000 000000
2017-10-31 12:18:05,0.41,0.73,0.00,15.69,19.09,22.39,14.36,46.25,1022.96,2060.02,3257.26,2931.55,3364.74,600.17,615.04,2.55,0000 0000 0000 0000 000000
2017-10-31 12:23:06,0.31,0.75,0.00,15.69,19.09,22.37,14.38,46.26,1022.96,2060.02,3250.25,2926.70,3359.02,600.32,615.23,2.60,0000 0000 0000 0000 000000
2017-10-31 12:28:07,0.28,0.77,0.00,15.68,19.09,22.34,14.32,46.28,1022.97,2060.03,3244.40,2922.65,3354.40,599.64,614.53,2.65,0000 0000 0000 0000 000000
2017-10-31 12:33:09,0.28,0.78,0.00,15.66,19.09,22.35,14.38,46.23,1022.96,2060.02,3238.59,2918.62,3349.64,599.66,614.68,2.70,0000 0000 0000 0000 000000
2017-10-31 12:38:10,0.28,0.80,0.00,15.65,19.09,22.37,14.40,46.18,1022.96,2060.03,3232.84,2914.53,3344.76,600.25,615.29,2.75,0000 0000 0000 0000 000000
2017-10-31 12:43:11,0.28,0.81,0.00,15.65,19.09,22.36,14.40,46.18,1022.96,2060.00,3227.04,2910.58,3340.15,600.34,615.34,2.81,0000 0000 0000 0000 000000
2017-10-31 12:48:12,0.28,0.83,0.00,15.64,19.08,22.31,14.40,46.18,1022.96,2060.01,3221.34,2906.66,3335.53,600.29,615.33,2.86,0000 0000 0000 0000 000000
2017-10-31 12:53:14,0.26,0.84,0.00,15.63,19.07,22.33,14.43,46.29,1022.96,2060.02,3215.98,2902.97,3331.18,600.44,615.47,2.91,0000 0000 0000 0000 000000
2017-10-31 12:58:15,0.26,0.85,0.00,15.62,19.07,22.30,14.31,46.33,1022.96,2060.05,3210.52,2899.32,3326.87,600.07,615.20,2.96,0000 0000 0000 0000 000000